DW7857 Weather Reports


Display with metric or nautical units.
time (UTC)temp
F
wind
direction
speed
MPH
gust
MPH
rain 1hr
in
rain 24hr
in
rain mn
in
humidity
%
barometer
mb
20170922171009 58 168 10.0 17.0 0.00 0.02 0.02 81 1027.5
20170922170009 59 185 10.0 12.0 0.00 0.02 0.02 79 1027.3
20170922165009 59 191 11.0 19.0 0.00 0.02 0.02 76 1027.4
20170922164009 59 171 11.0 16.0 0.00 0.02 0.02 75 1027.2
20170922163009 60 178 10.0 12.0 0.00 0.02 0.02 75 1027.1
20170922162009 60 155 11.0 14.0 0.00 0.02 0.02 74 1027.3
20170922161009 60 209 10.0 15.0 0.00 0.02 0.02 73 1027.2
20170922160009 61 238 11.0 17.0 0.00 0.02 0.02 71 1027.5
20170922155009 62 167 13.0 17.0 0.00 0.02 0.02 71 1027.5
20170922154009 61 171 13.0 20.0 0.00 0.02 0.02 71 1027.3
20170922153009 61 183 9.0 12.0 0.00 0.02 0.02 71 1027.3
20170922152009 62 191 12.0 16.0 0.00 0.02 0.02 69 1027.4
20170922151009 62 178 12.0 16.0 0.00 0.02 0.02 70 1027.6
20170922150009 62 160 13.0 18.0 0.00 0.02 0.02 67 1027.7
20170922145009 62 193 14.0 20.0 0.00 0.02 0.02 69 1027.7
20170922144009 63 179 11.0 16.0 0.00 0.02 0.02 69 1027.6
20170922143009 62 195 12.0 20.0 0.02 0.02 0.02 71 1027.7
20170922142009 61 186 12.0 15.0 0.02 0.02 0.02 71 1027.7
20170922141009 60 222 11.0 17.0 0.02 0.02 0.02 72 1027.5
20170922140009 60 165 12.0 17.0 0.02 0.02 0.02 71 1027.7
20170922135009 60 204 11.0 19.0 0.02 0.02 0.02 70 1027.8
20170922134009 61 161 13.0 23.0 0.02 0.02 0.02 69 1027.9
20170922133009 61 203 10.0 16.0 0.00 0.00 0.00 69 1027.8
20170922132009 61 166 10.0 14.0 0.00 0.00 0.00 67 1027.8
20170922131009 62 173 10.0 14.0 0.00 0.00 0.00 65 1027.8
20170922130009 61 207 12.0 15.0 0.00 0.00 0.00 64 1028.0
20170922125009 62 183 9.0 15.0 0.00 0.00 0.00 64 1028.0
20170922124009 62 188 10.0 13.0 0.00 0.00 0.00 63 1028.0
20170922123009 64 163 11.0 15.0 0.00 0.00 0.00 60 1028.0
20170922122009 62 191 12.0 18.0 0.00 0.00 0.00 63 1027.8
20170922121010 64 175 12.0 17.0 0.00 0.00 0.00 59 1028.0
20170922120009 64 184 11.0 17.0 0.00 0.00 0.00 58 1027.9
20170922115009 63 172 13.0 18.0 0.00 0.00 0.00 62 1027.9
20170922114009 63 150 15.0 17.0 0.00 0.00 0.00 61 1027.9
20170922113009 62 204 12.0 16.0 0.00 0.00 0.00 63 1027.7
20170922112009 61 187 14.0 23.0 0.00 0.00 0.00 63 1027.7
20170922111009 61 156 10.0 18.0 0.00 0.00 0.00 63 1027.8
20170922110009 62 155 10.0 16.0 0.00 0.00 0.00 63 1028.0
20170922105009 63 191 9.0 13.0 0.00 0.00 0.00 60 1028.1
20170922104009 63 200 6.0 12.0 0.00 0.00 0.00 61 1028.2
20170922103009 63 174 8.0 12.0 0.00 0.01 0.00 61 1028.3
20170922102009 62 211 5.0 9.0 0.00 0.01 0.00 63 1028.2
20170922101009 60 176 5.0 7.0 0.00 0.01 0.00 65 1028.1
20170922100009 62 196 6.0 11.0 0.00 0.01 0.00 64 1028.0
20170922095009 63 160 9.0 12.0 0.00 0.02 0.00 65 1028.3
20170922094009 63 188 8.0 12.0 0.00 0.02 0.00 64 1028.4
20170922093009 62 190 7.0 13.0 0.00 0.04 0.00 65 1028.3
20170922092009 62 170 7.0 10.0 0.00 0.06 0.00 69 1028.0
20170922091009 62 163 7.0 10.0 0.00 0.08 0.00 70 1028.2
20170922090009 62 164 5.0 8.0 0.00 0.12 0.00 70 1028.2
20170922085009 62 131 3.0 4.0 0.00 0.14 0.00 70 1028.3
20170922084009 61 179 3.0 4.0 0.00 0.15 0.00 72 1028.4
20170922083009 60 178 3.0 5.0 0.00 0.18 0.00 71 1028.0
20170922080010 58 57 1.0 3.0 0.00 0.20 0.00 79 1028.1
20170922075010 58 90 0.0 1.0 0.00 0.20 0.00 85 1028.2
20170922074010 57 0 0.0 0.0 0.00 0.21 0.00 87 1028.4
20170922073010 55 0 0.0 0.0 0.00 0.22 0.00 90 1028.2
20170922072010 52 0 0.0 0.0 0.00 0.22 0.00 94 1028.3
20170922071010 48 181 1.0 4.0 0.00 0.25 0.00 94 1028.3
20170922070010 46 0 0.0 0.0 0.00 0.25 0.00 93 1028.0
20170922065010 45 0 0.0 0.0 0.00 0.25 0.00 100 1028.0
20170922064010 45 0 0.0 0.0 0.00 0.25 0.00 97 1028.2
20170922063010 44 0 0.0 0.0 0.00 0.25 0.00 97 1028.0
20170922062010 44 0 0.0 0.0 0.00 0.25 0.00 97 1027.7
20170922061010 43 0 0.0 0.0 0.00 0.25 0.00 97 1027.7
20170922060010 43 0 0.0 0.0 0.00 0.25 0.00 96 1027.8
20170922055010 43 0 0.0 0.0 0.00 0.26 0.00 96 1027.7
20170922054010 43 0 0.0 0.0 0.00 0.27 0.00 96 1027.7
20170922053010 43 0 0.0 0.0 0.00 0.27 0.00 96 1027.7
20170922052010 43 0 0.0 0.0 0.00 0.27 0.00 96 1027.7
20170922051010 44 0 0.0 0.0 0.00 0.27 0.00 96 1027.6
20170922050010 44 0 0.0 0.0 0.00 0.27 0.00 97 1027.8
20170922045010 43 0 0.0 0.0 0.00 0.28 0.00 96 1027.6
20170922044010 44 0 0.0 0.0 0.00 0.28 0.00 96 1027.8
20170922043010 43 0 0.0 0.0 0.00 0.28 0.00 96 1027.7
20170922042010 43 181 0.0 2.0 0.00 0.30 0.00 96 1027.9
20170922041010 43 172 2.0 4.0 0.00 0.30 0.00 96 1027.7
20170922040010 43 149 3.0 4.0 0.00 0.30 0.00 95 1027.8
20170922035010 43 162 2.0 5.0 0.00 0.32 0.00 95 1027.7
20170922034010 42 0 0.0 0.0 0.00 0.32 0.00 95 1027.7
20170922033010 42 202 1.0 4.0 0.00 0.32 0.00 94 1027.9
20170922032010 42 181 0.0 4.0 0.00 0.33 0.00 94 1027.7
20170922031010 42 156 1.0 4.0 0.00 0.34 0.00 94 1027.7
20170922030010 43 190 4.0 5.0 0.00 0.37 0.00 94 1027.9
20170922025010 43 173 2.0 4.0 0.00 0.37 0.00 94 1027.5
20170922024010 43 144 2.0 4.0 0.00 0.37 0.00 94 1027.7
20170922023010 43 163 2.0 4.0 0.00 0.38 0.00 94 1027.9
20170922022010 43 0 0.0 0.0 0.00 0.39 0.00 94 1027.9
20170922021010 43 225 0.0 2.0 0.00 0.40 0.00 94 1027.8
20170922020010 44 196 1.0 5.0 0.00 0.40 0.00 94 1027.9
20170922015010 44 153 1.0 3.0 0.00 0.41 0.00 94 1028.0
20170922014010 44 173 1.0 4.0 0.00 0.41 0.00 94 1027.8
20170922013010 44 0 0.0 0.0 0.00 0.41 0.00 94 1027.7
20170922012010 44 0 0.0 0.0 0.00 0.43 0.00 94 1027.6
20170922011010 44 175 0.0 2.0 0.00 0.44 0.00 94 1027.8
20170922010009 45 163 2.0 3.0 0.00 0.44 0.00 94 1027.8
20170922005010 45 155 1.0 3.0 0.00 0.45 0.00 94 1027.9
20170922004010 45 174 1.0 3.0 0.00 0.45 0.00 93 1028.0
20170922003010 44 169 0.0 2.0 0.00 0.46 0.00 93 1028.1
20170922002010 44 165 2.0 4.0 0.00 0.47 0.00 93 1028.1
20170922001010 44 158 2.0 4.0 0.00 0.47 0.00 92 1027.8
20170922000020 45 181 0.0 3.0 0.00 0.48 0.00 92 1027.9
20170921235010 45 185 0.0 2.0 0.00 0.48 0.48 92 1027.9
20170921234010 45 225 0.0 2.0 0.00 0.48 0.48 92 1027.8
20170921233010 45 0 0.0 0.0 0.00 0.48 0.48 91 1027.7
20170921232010 45 154 0.0 1.0 0.00 0.50 0.48 91 1027.6
20170921231010 45 166 1.0 3.0 0.00 0.51 0.48 91 1027.7
20170921230009 46 167 0.0 2.0 0.00 0.51 0.48 86 1027.7
20170921225010 46 155 1.0 3.0 0.00 0.51 0.48 86 1027.6
20170921224010 46 178 0.0 2.0 0.00 0.51 0.48 86 1027.5
20170921223009 46 195 0.0 2.0 0.00 0.51 0.48 86 1027.5
20170921222010 47 0 0.0 0.0 0.00 0.52 0.48 86 1027.5
20170921221010 47 0 0.0 0.0 0.00 0.52 0.48 86 1027.3
20170921220009 47 165 1.0 3.0 0.00 0.52 0.48 85 1027.3
20170921215010 47 143 2.0 3.0 0.00 0.52 0.48 84 1027.2
20170921214010 47 166 2.0 3.0 0.00 0.53 0.48 84 1027.2
20170921213009 47 173 2.0 4.0 0.00 0.53 0.48 83 1027.2
20170921212010 48 0 0.0 0.0 0.00 0.53 0.48 83 1027.1
20170921211010 48 0 0.0 0.0 0.00 0.53 0.48 83 1027.0
20170921210010 48 0 0.0 0.0 0.00 0.53 0.48 83 1027.0
20170921205010 48 0 0.0 0.0 0.00 0.53 0.48 82 1027.0
20170921204010 47 0 0.0 0.0 0.00 0.53 0.48 80 1026.9
20170921203010 48 0 0.0 0.0 0.00 0.54 0.48 81 1027.0
20170921202010 49 0 0.0 0.0 0.00 0.56 0.48 80 1027.0
20170921201010 49 0 0.0 0.0 0.00 0.56 0.48 79 1026.7
20170921200010 49 0 0.0 0.0 0.00 0.58 0.48 79 1026.6
20170921195010 50 0 0.0 0.0 0.00 0.58 0.48 77 1026.5
20170921194010 50 0 0.0 0.0 0.00 0.58 0.48 73 1026.6
20170921193010 51 0 0.0 0.0 0.00 0.58 0.48 72 1026.4
20170921192010 52 0 0.0 0.0 0.00 0.58 0.48 72 1026.2
20170921191009 53 0 0.0 0.0 0.00 0.58 0.48 72 1026.2
20170921190010 53 0 0.0 0.0 0.00 0.59 0.48 70 1026.2
20170921185009 53 0 0.0 0.0 0.00 0.59 0.48 70 1026.1
20170921184010 54 0 0.0 0.0 0.00 0.60 0.48 68 1025.9
20170921183009 55 270 0.0 2.0 0.00 0.60 0.48 62 1025.9
20170921182009 56 288 3.0 5.0 0.00 0.60 0.48 61 1025.7
20170921181009 57 302 2.0 6.0 0.00 0.60 0.48 60 1025.5
20170921180009 58 297 2.0 5.0 0.00 0.60 0.48 58 1025.3
20170921175009 60 266 5.0 6.0 0.00 0.60 0.48 54 1025.2
20170921174009 61 291 6.0 8.0 0.00 0.60 0.48 52 1024.8
20170921173009 65 329 1.0 3.0 0.00 0.60 0.48 51 1024.7
20170921172009 64 0 0.0 0.0 0.00 0.61 0.48 52 1024.5